Weather Roundup
Issued by NWS

Home | Current Version | Previous Version | Text Only | Print | Product List | Glossary On
Versions: 1 2 3 4 5 6 7 8 9 10 11 12 13 14 15 16 17 18 19 20 21 22 23 24 25 26 27 28 29 30 31 32 33 34 35 36 37 38 39 40 41 42 43 44 45 46 47 48 49 50
000
NZUS93 KARX 190159
HRRWXR

CURRENT HOURLY OBSERVATIONS ACROSS
MUCH OF THE UPPER MISSISSIPPI VALLEY
NATIONAL WEATHER SERVICE LA CROSSE WI
900 PM CDT WED OCT 18 2017


...SOUTHEAST MINNESOTA...


CITY           SKY/WX    TMP DP  RH WIND       PRES   REMARKS
ROCHESTER      CLEAR     55  39  54 W10       29.99R
ROCHESTER/MAYO FAIR      60  32  34 W13G18    29.98R
WINONA         PTCLDY    63  36  36 W12G17    29.95R
AUSTIN         CLEAR     57  30  35 NW7       30.00R
ALBERT LEA     NOT AVBL
DODGE CENTER   CLEAR     55  28  35 W9        29.99R
PRESTON        CLEAR     55  42  61 W8        29.99R
OWATONNA       CLOUDY    50  34  53 W8        30.01R
FARIBAULT      PTCLDY    55  28  35 W12       30.01R
$$

...ELSEWHERE IN MINNESOTA...


CITY           SKY/WX    TMP DP  RH WIND       PRES   REMARKS
MINNEAPOLIS    CLOUDY    56  25  30 W12       29.98R
INTNL FALLS    CLEAR     51  14  22 W12G22    29.73R
DULUTH         CLOUDY    50  18  28 W13       29.83R
RED WING       CLEAR     59  18  20 W13G18    29.96R
REDWOOD FALLS  CLOUDY    51  26  37 W5        30.03R
MANKATO        CLOUDY    54  29  38 NW9       30.02R
WORTHINGTON    CLEAR     46  34  62 NW3       30.05S
FAIRMONT       CLEAR     52  33  48 NW6       30.03S
$$

...SOUTHWEST WISCONSIN...


CITY           SKY/WX    TMP DP  RH WIND       PRES   REMARKS
LA CROSSE      CLEAR     62  48  60 SW8       29.93R
PRAIRIE DU CHI CLEAR     64  46  52 CALM      29.97R
BOSCOBEL       CLEAR     62  47  57 S6        29.96S
LONE ROCK      PTCLDY    63  48  58 VRB3      29.96S
PLATTEVILLE    CLOUDY    57  48  72 S8        30.00S
FORT MC COY    CLEAR     53  47  81 W3        29.93R
MAUSTON-NEW LI CLEAR     65  48  53 SW8       29.91S
VIROQUA        FAIR      60  48  65 SW6       29.95S
WIS DELLS      PTCLDY    62  45  52 SW14      29.94S
$$

...ELSEWHERE IN WISCONSIN...


CITY           SKY/WX    TMP DP  RH WIND       PRES   REMARKS
MILWAUKEE      PTCLDY    63  43  48 SW14      29.99R
MADISON        CLEAR     64  44  48 S9        29.97S
GREEN BAY      CLEAR     63  46  54 SW15      29.86F
EAU CLAIRE     NOT AVBL
BLACK RVR FLS  FAIR      64  42  46 SW5       29.90F
MEDFORD        PTCLDY    58  46  63 SW9       29.86S
WAUSAU         CLEAR     62  46  55 SW16G26   29.84S
WIS RAPIDS     CLEAR     61  48  62 SW9       29.90R
MARSHFIELD     CLEAR     58  46  64 SW10      29.88R
RICE LAKE      CLEAR     57  21  25 W8        29.91R
$$

...NORTHEAST IOWA...


CITY           SKY/WX    TMP DP  RH WIND       PRES   REMARKS
WATERLOO       CLOUDY    55  47  74 NW8       29.99R
DUBUQUE        CLEAR     55  47  74 S8        30.01S
DECORAH        CLEAR     61  48  63 CALM      29.97R
MASON CITY     CLEAR     50  41  71 NW7       30.03R
CHARLES CITY   CLEAR     55  46  71 NW7       30.00R
OELWEIN        PTCLDY    57  50  77 SW8       29.99S
$$

...ELSEWHERE IN IOWA...


CITY           SKY/WX    TMP DP  RH WIND       PRES   REMARKS
DES MOINES     MOCLDY    64  49  57 SW8       30.01R
IOWA CITY      CLEAR     56  47  71 CALM      30.04R
FORT DODGE     CLEAR     52  47  83 N3        30.03R
MARSHALLTOWN   CLOUDY    59  49  69 SW6       30.00R
CEDAR RAPIDS   CLEAR     58  47  66 S6        30.01S
$$

...NORTHERN ILLINOIS...


CITY           SKY/WX    TMP DP  RH WIND       PRES   REMARKS
CHICAGO-OHARE  PTCLDY    64  42  44 SW15      30.03S
CHICAGO-MIDWAY PTCLDY    63  43  48 S14       30.04F
MOLINE         CLEAR     60  42  51 S6        30.03R
ROCKFORD       CLEAR     58  43  57 SW6       30.05R
PEORIA         CLEAR     61  46  57 S9        30.06R
$$

NOTE: "FAIR" INDICATES FEW OR NO CLOUDS BELOW 12,000 FEET WITH NO
SIGNIFICANT WEATHER AND/OR OBSTRUCTIONS TO VISIBILITY. WIND
SPEEDS ARE IN MILES-PER-HOUR.




USA.gov is the U.S. government's official web portal to all federal, state and local government web resources and services.